Погода в Баженове

Россия / Омская область     55°38′08″N   73°05′57″E
темп.,
°C
ветер,
м/с
пор.,
м/с
влажн.,
%
обл.,
%
осадки,
мм/ч
давл.,
гПа
погр.,
м
10 мая, пн
пн1000:00+12всв71343100 0.0 1020707
03:00+10всв71446100 0.0 1020694
06:00+9всв61250100 0.0 1022607
09:00+11в81144100 0.0 1023997
12:00+14всв81035100 0.0 10231410
15:00+16всв7832100 0.0 10231711
18:00+16всв673126 0.0 10231794
21:00+12ссв22460 0.0 102421
11 мая, вт
вт1100:00+9св36520 0.0 102490
03:00+8с46600 0.0 102490
06:00+7св38750 0.0 1026155
09:00+12св57510 0.0 1026797
12:00+15ссв68350 0.0 10261477
15:00+18ссв57280 0.0 10251730
18:00+18ссв56270 0.0 10251830
21:00+13св11400 0.0 102511
12 мая, ср
ср1200:00+11ю114454 0.0 102510
03:00+10юз2246100 0.0 102517
06:00+10зюз345566 0.0 102557
09:00+17зсз5842100 0.0 1023421
12:00+20зсз6834100 0.0 10221183
15:00+21сз71038100 0.0 10212606
18:00+19ссз8935100 0.0 10221834
21:00+13с4948100 0.0 1023206
13 мая, чт
чт1300:00+10ссз485079 0.0 1024171
03:00+9с345098 0.0 102363
06:00+9ссз365183 0.0 1024117
09:00+12с3545100 0.0 1024321
12:00+16ссз46405 0.0 10231476
15:00+17ссз464581 0.0 10221466
18:00+19ссз4845100 0.0 10211958
21:00+15зсз3769100 0.0 1021206
14 мая, пт
пт1400:00+14сз31078100 0.1 1021264
03:00+12с6128396 0.0 1022505
06:00+9с5108671 0.0 1024437
09:00+12с566387 0.0 1026785
12:00+16с45405 0.0 10261186
15:00+18сз45305 0.0 10251516
18:00+19зсз45325 0.0 10241407
21:00+15юз33505 0.0 102321